| time (UTC) | temp F | wind direction | speed MPH | gust MPH | rain 1hr in | rain 24hr in | rain mn in | humidity % | barometer mb |
| 20260831042036 | 61 | 0.0 | 0.0 | 0.00 | 0.02 | 0.00 | 96 | 1020.4 | |
| 20260831041517 | 61 | 0.0 | 0.0 | 0.00 | 0.02 | 0.00 | 96 | 1020.3 | |
| 20260831041017 | 61 | 0.0 | 0.0 | 0.00 | 0.02 | 0.00 | 96 | 1020.3 | |
| 20260831040517 | 61 | 0.0 | 0.0 | 0.00 | 0.02 | 0.00 | 96 | 1020.3 | |
| 20260831040017 | 61 | 0.0 | 1.0 | 0.00 | 0.02 | 0.00 | 96 | 1020.3 | |
| 20260831035517 | 61 | 0.0 | 1.0 | 0.00 | 0.02 | 0.02 | 96 | 1020.3 | |
| 20260831035037 | 61 | 0.0 | 0.0 | 0.00 | 0.02 | 0.02 | 96 | 1020.3 | |
| 20260831034517 | 61 | 0.0 | 0.0 | 0.00 | 0.02 | 0.02 | 96 | 1020.2 | |
| 20260831034017 | 61 | 0.0 | 1.0 | 0.00 | 0.02 | 0.02 | 96 | 1020.3 | |
| 20260831033517 | 61 | 0.0 | 0.0 | 0.00 | 0.02 | 0.02 | 96 | 1020.3 | |
| 20260831033017 | 61 | 0.0 | 0.0 | 0.00 | 0.02 | 0.02 | 96 | 1020.2 | |
| 20260831032517 | 61 | 0.0 | 0.0 | 0.00 | 0.02 | 0.02 | 96 | 1020.2 | |
| 20260831032037 | 61 | 0.0 | 1.0 | 0.00 | 0.02 | 0.02 | 96 | 1020.3 | |
| 20260831031517 | 61 | 0.0 | 1.0 | 0.00 | 0.02 | 0.02 | 96 | 1020.3 | |
| 20260831031017 | 61 | 0.0 | 0.0 | 0.00 | 0.02 | 0.02 | 96 | 1020.2 | |
| 20260831030517 | 61 | 0.0 | 0.0 | 0.00 | 0.02 | 0.02 | 96 | 1020.2 | |
| 20260831030016 | 61 | 0.0 | 1.0 | 0.00 | 0.02 | 0.02 | 96 | 1020.2 | |
| 20260831025516 | 62 | 0.0 | 0.0 | 0.00 | 0.02 | 0.02 | 96 | 1020.1 | |
| 20260831025017 | 61 | 0.0 | 1.0 | 0.00 | 0.02 | 0.02 | 95 | 1020.2 | |
| 20260831024537 | 61 | 0.0 | 0.0 | 0.00 | 0.02 | 0.02 | 96 | 1020.2 | |
| 20260831024017 | 61 | 0.0 | 1.0 | 0.00 | 0.02 | 0.02 | 96 | 1020.3 | |
| 20260831023537 | 61 | 0.0 | 1.0 | 0.00 | 0.02 | 0.02 | 96 | 1020.3 | |
| 20260831023017 | 61 | 0.0 | 0.0 | 0.00 | 0.02 | 0.02 | 96 | 1020.1 | |
| 20260831022517 | 61 | 0.0 | 0.0 | 0.00 | 0.02 | 0.02 | 96 | 1020.2 | |
| 20260831022017 | 61 | 0.0 | 1.0 | 0.00 | 0.02 | 0.02 | 95 | 1020.1 | |
| 20260831021517 | 62 | 0.0 | 0.0 | 0.00 | 0.02 | 0.02 | 95 | 1020.1 | |
| 20260831021017 | 62 | 0.0 | 0.0 | 0.00 | 0.02 | 0.02 | 95 | 1020.1 | |
| 20260831020517 | 62 | 0.0 | 0.0 | 0.00 | 0.02 | 0.02 | 95 | 1020.1 | |
| 20260831020017 | 62 | 315 | 1.0 | 2.0 | 0.00 | 0.02 | 0.02 | 95 | 1020.1 |
| 20260831015517 | 62 | 0.0 | 1.0 | 0.00 | 0.02 | 0.02 | 95 | 1020.2 | |
| 20260831015017 | 62 | 0.0 | 1.0 | 0.00 | 0.02 | 0.02 | 95 | 1020.2 | |
| 20260831014517 | 62 | 0.0 | 0.0 | 0.00 | 0.02 | 0.02 | 95 | 1020.1 | |
| 20260831014016 | 62 | 0.0 | 0.0 | 0.00 | 0.02 | 0.02 | 94 | 1020.1 | |
| 20260831013517 | 62 | 0.0 | 0.0 | 0.00 | 0.02 | 0.02 | 94 | 1020.0 | |
| 20260831013036 | 62 | 0.0 | 0.0 | 0.00 | 0.02 | 0.02 | 94 | 1019.8 | |
| 20260831012517 | 62 | 0.0 | 3.0 | 0.00 | 0.02 | 0.02 | 94 | 1019.7 | |
| 20260831012017 | 62 | 0.0 | 0.0 | 0.00 | 0.02 | 0.02 | 94 | 1019.7 | |
| 20260831011517 | 62 | 0.0 | 0.0 | 0.00 | 0.02 | 0.02 | 94 | 1019.5 | |
| 20260831011017 | 62 | 0.0 | 1.0 | 0.00 | 0.02 | 0.02 | 94 | 1019.6 | |
| 20260831010517 | 62 | 0.0 | 1.0 | 0.00 | 0.02 | 0.02 | 93 | 1019.6 | |
| 20260831010037 | 63 | 0.0 | 0.0 | 0.00 | 0.02 | 0.02 | 93 | 1019.5 | |
| 20260831005517 | 63 | 0.0 | 0.0 | 0.00 | 0.02 | 0.02 | 93 | 1019.5 | |
| 20260831005017 | 63 | 0.0 | 1.0 | 0.00 | 0.02 | 0.02 | 93 | 1019.5 | |
| 20260831004517 | 63 | 338 | 1.0 | 2.0 | 0.00 | 0.02 | 0.02 | 93 | 1019.4 |
| 20260831004017 | 63 | 270 | 1.0 | 2.0 | 0.00 | 0.02 | 0.02 | 92 | 1019.3 |
| 20260831003517 | 63 | 0.0 | 2.0 | 0.00 | 0.02 | 0.02 | 92 | 1019.3 | |
| 20260831003017 | 63 | 0.0 | 4.0 | 0.00 | 0.02 | 0.02 | 93 | 1019.2 | |
| 20260831002517 | 63 | 338 | 1.0 | 5.0 | 0.00 | 0.02 | 0.02 | 92 | 1019.1 |
| 20260831002037 | 63 | 0 | 1.0 | 3.0 | 0.00 | 0.02 | 0.02 | 93 | 1019.1 |
| 20260831001517 | 63 | 270 | 1.0 | 5.0 | 0.00 | 0.02 | 0.02 | 92 | 1018.9 |
| 20260831001017 | 63 | 315 | 2.0 | 5.0 | 0.00 | 0.02 | 0.02 | 93 | 1018.8 |
| 20260831000516 | 63 | 315 | 1.0 | 3.0 | 0.00 | 0.02 | 0.02 | 93 | 1018.9 |
| 20260831000017 | 63 | 315 | 1.0 | 3.0 | 0.00 | 0.02 | 0.02 | 93 | 1018.9 |
| 20260830235517 | 63 | 293 | 2.0 | 8.0 | 0.00 | 0.02 | 0.02 | 93 | 1018.8 |
| 20260830235017 | 63 | 315 | 1.0 | 4.0 | 0.00 | 0.02 | 0.02 | 94 | 1018.6 |
| 20260830234537 | 64 | 293 | 1.0 | 7.0 | 0.00 | 0.02 | 0.02 | 94 | 1018.6 |
| 20260830234017 | 64 | 293 | 2.0 | 7.0 | 0.00 | 0.02 | 0.02 | 94 | 1018.6 |
| 20260830233517 | 64 | 270 | 1.0 | 4.0 | 0.00 | 0.02 | 0.02 | 94 | 1018.6 |
| 20260830233017 | 64 | 315 | 1.0 | 4.0 | 0.00 | 0.02 | 0.02 | 94 | 1018.6 |
| 20260830232517 | 64 | 293 | 1.0 | 5.0 | 0.00 | 0.02 | 0.02 | 94 | 1018.5 |
| 20260830232017 | 64 | 293 | 1.0 | 3.0 | 0.00 | 0.02 | 0.02 | 95 | 1018.5 |
| 20260830231516 | 64 | 315 | 1.0 | 4.0 | 0.00 | 0.02 | 0.02 | 94 | 1018.4 |
| 20260830231017 | 64 | 315 | 1.0 | 3.0 | 0.00 | 0.02 | 0.02 | 95 | 1018.3 |
| 20260830230517 | 64 | 0.0 | 3.0 | 0.00 | 0.02 | 0.02 | 94 | 1018.4 | |
| 20260830230017 | 63 | 315 | 2.0 | 4.0 | 0.01 | 0.02 | 0.02 | 94 | 1018.4 |
| 20260830225517 | 63 | 0.0 | 2.0 | 0.01 | 0.02 | 0.02 | 95 | 1018.4 | |
| 20260830225017 | 63 | 0.0 | 1.0 | 0.02 | 0.02 | 0.02 | 96 | 1018.4 | |
| 20260830224517 | 63 | 0.0 | 0.0 | 0.02 | 0.02 | 0.02 | 96 | 1018.4 | |
| 20260830224017 | 63 | 0.0 | 0.0 | 0.02 | 0.02 | 0.02 | 96 | 1018.4 | |
| 20260830223517 | 64 | 0.0 | 0.0 | 0.02 | 0.02 | 0.02 | 96 | 1018.5 | |
| 20260830223017 | 64 | 0.0 | 1.0 | 0.02 | 0.02 | 0.02 | 95 | 1018.5 | |
| 20260830222557 | 64 | 0.0 | 0.0 | 0.02 | 0.02 | 0.02 | 95 | 1018.5 | |
| 20260830222017 | 64 | 0.0 | 0.0 | 0.02 | 0.02 | 0.02 | 94 | 1018.6 | |
| 20260830221537 | 65 | 0.0 | 0.0 | 0.02 | 0.02 | 0.02 | 93 | 1018.6 | |
| 20260830221017 | 65 | 0.0 | 0.0 | 0.02 | 0.02 | 0.02 | 91 | 1018.7 | |
| 20260830220517 | 66 | 0.0 | 0.0 | 0.02 | 0.02 | 0.02 | 89 | 1018.7 | |
| 20260830220017 | 66 | 0.0 | 0.0 | 0.01 | 0.01 | 0.01 | 86 | 1018.6 | |
| 20260830215517 | 67 | 225 | 1.0 | 3.0 | 0.01 | 0.01 | 0.01 | 85 | 1018.6 |
| 20260830215017 | 67 | 135 | 1.0 | 4.0 | 0.00 | 0.00 | 0.00 | 83 | 1018.6 |
| 20260830214517 | 68 | 225 | 1.0 | 4.0 | 0.00 | 0.00 | 0.00 | 82 | 1018.6 |
| 20260830214017 | 68 | 225 | 1.0 | 4.0 | 0.00 | 0.00 | 0.00 | 80 | 1018.6 |
| 20260830213517 | 68 | 158 | 2.0 | 6.0 | 0.00 | 0.00 | 0.00 | 79 | 1018.5 |
| 20260830213017 | 68 | 90 | 1.0 | 6.0 | 0.00 | 0.00 | 0.00 | 80 | 1018.4 |
| 20260830212517 | 68 | 315 | 1.0 | 4.0 | 0.00 | 0.00 | 0.00 | 79 | 1018.4 |
| 20260830212037 | 68 | 315 | 1.0 | 4.0 | 0.00 | 0.00 | 0.00 | 78 | 1018.4 |
| 20260830211537 | 68 | 315 | 1.0 | 3.0 | 0.00 | 0.00 | 0.00 | 79 | 1018.5 |
| 20260830211017 | 69 | 0.0 | 2.0 | 0.00 | 0.00 | 0.00 | 79 | 1018.5 | |
| 20260830210537 | 69 | 293 | 1.0 | 1.0 | 0.00 | 0.00 | 0.00 | 79 | 1018.5 |
| 20260830210017 | 69 | 0.0 | 2.0 | 0.00 | 0.00 | 0.00 | 79 | 1018.4 | |
| 20260830205537 | 69 | 0.0 | 2.0 | 0.00 | 0.00 | 0.00 | 78 | 1018.5 | |
| 20260830205018 | 69 | 315 | 1.0 | 2.0 | 0.00 | 0.00 | 0.00 | 77 | 1018.6 |
| 20260830204517 | 69 | 0.0 | 2.0 | 0.00 | 0.00 | 0.00 | 78 | 1018.6 | |
| 20260830204016 | 69 | 0.0 | 1.0 | 0.00 | 0.00 | 0.00 | 78 | 1018.6 | |
| 20260830203517 | 70 | 180 | 1.0 | 3.0 | 0.00 | 0.00 | 0.00 | 76 | 1018.5 |
| 20260830203017 | 70 | 0.0 | 1.0 | 0.00 | 0.00 | 0.00 | 79 | 1018.7 | |
| 20260830202517 | 70 | 0.0 | 0.0 | 0.00 | 0.00 | 0.00 | 79 | 1018.7 | |
| 20260830202017 | 70 | 0.0 | 2.0 | 0.00 | 0.00 | 0.00 | 77 | 1018.5 | |
| 20260830201517 | 70 | 293 | 1.0 | 2.0 | 0.00 | 0.00 | 0.00 | 76 | 1018.7 |
| 20260830201037 | 71 | 293 | 1.0 | 2.0 | 0.00 | 0.00 | 0.00 | 75 | 1018.6 |
| 20260830200537 | 71 | 293 | 1.0 | 3.0 | 0.00 | 0.00 | 0.00 | 73 | 1018.6 |
| 20260830200017 | 72 | 0.0 | 3.0 | 0.00 | 0.00 | 0.00 | 72 | 1018.6 | |
| 20260830195517 | 72 | 315 | 1.0 | 2.0 | 0.00 | 0.00 | 0.00 | 72 | 1018.7 |
| 20260830195017 | 72 | 0.0 | 2.0 | 0.00 | 0.00 | 0.00 | 72 | 1018.8 | |
| 20260830194517 | 72 | 225 | 2.0 | 8.0 | 0.00 | 0.00 | 0.00 | 71 | 1018.8 |
| 20260830194017 | 72 | 315 | 2.0 | 6.0 | 0.00 | 0.00 | 0.00 | 72 | 1018.8 |
| 20260830193517 | 72 | 135 | 1.0 | 4.0 | 0.00 | 0.00 | 0.00 | 72 | 1018.9 |
| 20260830193017 | 72 | 270 | 2.0 | 5.0 | 0.00 | 0.00 | 0.00 | 73 | 1018.9 |
| 20260830192517 | 71 | 225 | 1.0 | 3.0 | 0.00 | 0.00 | 0.00 | 74 | 1019.0 |
| 20260830192017 | 71 | 338 | 2.0 | 5.0 | 0.00 | 0.00 | 0.00 | 72 | 1019.2 |
| 20260830191517 | 71 | 315 | 2.0 | 7.0 | 0.00 | 0.00 | 0.00 | 75 | 1019.2 |
| 20260830191017 | 71 | 315 | 3.0 | 7.0 | 0.00 | 0.00 | 0.00 | 74 | 1019.1 |
| 20260830190517 | 71 | 315 | 2.0 | 5.0 | 0.00 | 0.00 | 0.00 | 73 | 1019.2 |
| 20260830190017 | 71 | 315 | 2.0 | 5.0 | 0.00 | 0.00 | 0.00 | 72 | 1019.3 |
| 20260830185517 | 72 | 315 | 4.0 | 7.0 | 0.00 | 0.00 | 0.00 | 70 | 1019.3 |
| 20260830185037 | 72 | 315 | 2.0 | 5.0 | 0.00 | 0.00 | 0.00 | 69 | 1019.3 |
| 20260830184517 | 73 | 315 | 3.0 | 6.0 | 0.00 | 0.00 | 0.00 | 67 | 1019.3 |
| 20260830184017 | 73 | 135 | 1.0 | 4.0 | 0.00 | 0.00 | 0.00 | 68 | 1019.3 |
| 20260830183517 | 73 | 293 | 1.0 | 6.0 | 0.00 | 0.00 | 0.00 | 67 | 1019.4 |
| 20260830183037 | 73 | 338 | 3.0 | 5.0 | 0.00 | 0.00 | 0.00 | 67 | 1019.3 |
| 20260830182517 | 73 | 315 | 2.0 | 6.0 | 0.00 | 0.00 | 0.00 | 69 | 1019.4 |
| 20260830182017 | 72 | 338 | 2.0 | 4.0 | 0.00 | 0.00 | 0.00 | 70 | 1019.5 |
| 20260830181517 | 73 | 315 | 3.0 | 6.0 | 0.00 | 0.00 | 0.00 | 69 | 1019.5 |
| 20260830181017 | 72 | 0.0 | 3.0 | 0.00 | 0.00 | 0.00 | 72 | 1019.6 | |
| 20260830180537 | 71 | 315 | 1.0 | 3.0 | 0.00 | 0.00 | 0.00 | 70 | 1019.6 |
| 20260830180017 | 72 | 315 | 3.0 | 10.0 | 0.00 | 0.00 | 0.00 | 68 | 1019.7 |
| 20260830175537 | 71 | 293 | 2.0 | 5.0 | 0.00 | 0.00 | 0.00 | 72 | 1019.8 |
| 20260830175017 | 71 | 315 | 2.0 | 5.0 | 0.00 | 0.00 | 0.00 | 72 | 1020.0 |
| 20260830174517 | 70 | 293 | 3.0 | 6.0 | 0.00 | 0.00 | 0.00 | 74 | 1019.9 |
| 20260830174037 | 71 | 338 | 1.0 | 5.0 | 0.00 | 0.00 | 0.00 | 68 | 1020.0 |
| 20260830173517 | 72 | 338 | 3.0 | 7.0 | 0.00 | 0.00 | 0.00 | 70 | 1020.0 |
| 20260830173017 | 72 | 315 | 2.0 | 6.0 | 0.00 | 0.00 | 0.00 | 69 | 1020.1 |
| 20260830172517 | 71 | 315 | 1.0 | 5.0 | 0.00 | 0.00 | 0.00 | 75 | 1020.2 |
| 20260830172017 | 71 | 293 | 1.0 | 3.0 | 0.00 | 0.00 | 0.00 | 74 | 1020.3 |
| 20260830171517 | 70 | 225 | 1.0 | 4.0 | 0.00 | 0.00 | 0.00 | 72 | 1020.3 |
| 20260830171037 | 69 | 180 | 1.0 | 2.0 | 0.00 | 0.00 | 0.00 | 74 | 1020.3 |
| 20260830170517 | 69 | 225 | 2.0 | 5.0 | 0.00 | 0.00 | 0.00 | 75 | 1020.3 |
| 20260830170017 | 69 | 293 | 1.0 | 4.0 | 0.00 | 0.00 | 0.00 | 74 | 1020.5 |
| 20260830165517 | 70 | 248 | 2.0 | 5.0 | 0.00 | 0.00 | 0.00 | 72 | 1020.5 |
| 20260830165017 | 69 | 0.0 | 1.0 | 0.00 | 0.00 | 0.00 | 76 | 1020.5 | |
| 20260830164517 | 69 | 248 | 1.0 | 2.0 | 0.00 | 0.00 | 0.00 | 74 | 1020.5 |
| 20260830164017 | 68 | 0.0 | 2.0 | 0.00 | 0.00 | 0.00 | 78 | 1020.6 | |
| 20260830163517 | 68 | 248 | 1.0 | 3.0 | 0.00 | 0.00 | 0.00 | 75 | 1020.7 |
| 20260830163017 | 68 | 0.0 | 1.0 | 0.00 | 0.00 | 0.00 | 77 | 1020.7 | |
| 20260830162517 | 68 | 0.0 | 2.0 | 0.00 | 0.00 | 0.00 | 78 | 1020.7 | |
| 20260830162037 | 68 | 0.0 | 2.0 | 0.00 | 0.00 | 0.00 | 79 | 1020.9 | |
| 20260830161537 | 68 | 0.0 | 2.0 | 0.00 | 0.00 | 0.00 | 78 | 1020.9 | |
| 20260830161017 | 67 | 135 | 1.0 | 3.0 | 0.00 | 0.00 | 0.00 | 76 | 1020.9 |
| 20260830160517 | 67 | 0.0 | 2.0 | 0.00 | 0.00 | 0.00 | 74 | 1021.0 | |
| 20260830160017 | 68 | 248 | 1.0 | 5.0 | 0.00 | 0.00 | 0.00 | 74 | 1021.1 |
| 20260830155517 | 67 | 90 | 1.0 | 2.0 | 0.00 | 0.00 | 0.00 | 76 | 1021.1 |
| 20260830155017 | 67 | 225 | 1.0 | 3.0 | 0.00 | 0.00 | 0.00 | 75 | 1021.2 |
| 20260830154517 | 67 | 135 | 1.0 | 4.0 | 0.00 | 0.00 | 0.00 | 75 | 1021.1 |
| 20260830154017 | 67 | 158 | 2.0 | 5.0 | 0.00 | 0.00 | 0.00 | 75 | 1021.2 |
| 20260830153517 | 67 | 68 | 1.0 | 5.0 | 0.00 | 0.00 | 0.00 | 78 | 1021.4 |
| 20260830153017 | 67 | 315 | 1.0 | 4.0 | 0.00 | 0.00 | 0.00 | 77 | 1021.5 |
| 20260830152517 | 67 | 0 | 1.0 | 6.0 | 0.00 | 0.00 | 0.00 | 78 | 1021.5 |
| 20260830152017 | 67 | 293 | 1.0 | 3.0 | 0.00 | 0.00 | 0.00 | 80 | 1021.5 |
| 20260830151517 | 66 | 203 | 1.0 | 2.0 | 0.00 | 0.00 | 0.00 | 79 | 1021.3 |
| 20260830151017 | 66 | 0.0 | 2.0 | 0.00 | 0.00 | 0.00 | 78 | 1021.0 | |
| 20260830150517 | 66 | 0.0 | 2.0 | 0.00 | 0.00 | 0.00 | 79 | 1021.1 | |
| 20260830150037 | 67 | 0.0 | 1.0 | 0.00 | 0.00 | 0.00 | 80 | 1020.4 | |
| 20260830145537 | 67 | 0.0 | 1.0 | 0.00 | 0.00 | 0.00 | 76 | 1020.8 | |
| 20260830145017 | 67 | 0.0 | 2.0 | 0.00 | 0.00 | 0.00 | 77 | 1021.2 | |
| 20260830144517 | 67 | 0.0 | 3.0 | 0.00 | 0.00 | 0.00 | 78 | 1021.3 | |
| 20260830144037 | 67 | 0.0 | 1.0 | 0.00 | 0.00 | 0.00 | 79 | 1021.3 | |
| 20260830143517 | 67 | 203 | 1.0 | 3.0 | 0.00 | 0.00 | 0.00 | 78 | 1021.3 |
| 20260830143017 | 67 | 293 | 1.0 | 4.0 | 0.00 | 0.00 | 0.00 | 77 | 1021.3 |
| 20260830142517 | 67 | 68 | 1.0 | 2.0 | 0.00 | 0.00 | 0.00 | 79 | 1021.3 |
| 20260830142037 | 67 | 0.0 | 2.0 | 0.00 | 0.00 | 0.00 | 79 | 1021.3 | |
| 20260830141517 | 67 | 0.0 | 2.0 | 0.00 | 0.00 | 0.00 | 77 | 1021.4 | |
| 20260830141017 | 66 | 0.0 | 2.0 | 0.00 | 0.00 | 0.00 | 80 | 1021.4 | |
| 20260830140517 | 66 | 248 | 1.0 | 6.0 | 0.00 | 0.00 | 0.00 | 80 | 1021.5 |
| 20260830140017 | 66 | 135 | 1.0 | 3.0 | 0.00 | 0.00 | 0.00 | 78 | 1021.4 |
| 20260830135517 | 66 | 315 | 1.0 | 4.0 | 0.00 | 0.00 | 0.00 | 78 | 1021.5 |
| 20260830135017 | 66 | 293 | 1.0 | 3.0 | 0.00 | 0.00 | 0.00 | 77 | 1021.5 |
| 20260830134517 | 66 | 0.0 | 1.0 | 0.00 | 0.00 | 0.00 | 79 | 1021.5 | |
| 20260830134017 | 67 | 0.0 | 3.0 | 0.00 | 0.00 | 0.00 | 77 | 1021.5 | |
| 20260830133517 | 68 | 0.0 | 2.0 | 0.00 | 0.00 | 0.00 | 75 | 1021.4 | |
| 20260830133017 | 67 | 0.0 | 4.0 | 0.00 | 0.00 | 0.00 | 77 | 1021.4 | |
| 20260830132517 | 67 | 0.0 | 3.0 | 0.00 | 0.00 | 0.00 | 76 | 1021.3 | |
| 20260830132017 | 66 | 0.0 | 1.0 | 0.00 | 0.00 | 0.00 | 83 | 1021.3 | |
| 20260830131537 | 65 | 0.0 | 0.0 | 0.00 | 0.00 | 0.00 | 87 | 1021.5 | |
| 20260830131017 | 64 | 0.0 | 3.0 | 0.00 | 0.00 | 0.00 | 87 | 1021.5 | |
| 20260830130517 | 63 | 0.0 | 3.0 | 0.00 | 0.00 | 0.00 | 88 | 1021.5 | |
| 20260830130017 | 63 | 0.0 | 0.0 | 0.00 | 0.00 | 0.00 | 95 | 1021.5 | |
| 20260830125537 | 62 | 0.0 | 0.0 | 0.00 | 0.00 | 0.00 | 97 | 1021.5 | |
| 20260830125037 | 62 | 0.0 | 0.0 | 0.00 | 0.00 | 0.00 | 95 | 1021.5 | |
| 20260830124517 | 61 | 0.0 | 0.0 | 0.00 | 0.00 | 0.00 | 97 | 1021.6 | |
| 20260830124017 | 61 | 0.0 | 0.0 | 0.00 | 0.00 | 0.00 | 98 | 1021.5 | |
| 20260830123517 | 60 | 0.0 | 0.0 | 0.00 | 0.00 | 0.00 | 98 | 1021.5 | |
| 20260830123017 | 60 | 0.0 | 0.0 | 0.00 | 0.00 | 0.00 | 98 | 1021.6 | |
| 20260830122517 | 59 | 0.0 | 0.0 | 0.00 | 0.00 | 0.00 | 99 | 1021.6 | |
| 20260830122017 | 58 | 0.0 | 0.0 | 0.00 | 0.00 | 0.00 | 100 | 1021.6 | |
| 20260830121517 | 57 | 0.0 | 0.0 | 0.00 | 0.00 | 0.00 | 100 | 1021.6 | |
| 20260830121017 | 57 | 0.0 | 0.0 | 0.00 | 0.00 | 0.00 | 99 | 1021.6 | |
| 20260830120517 | 56 | 0.0 | 0.0 | 0.00 | 0.00 | 0.00 | 99 | 1021.7 | |
| 20260830120017 | 56 | 0.0 | 0.0 | 0.00 | 0.00 | 0.00 | 99 | 1021.6 | |
| 20260830115517 | 56 | 0.0 | 0.0 | 0.00 | 0.00 | 0.00 | 99 | 1021.6 | |
| 20260830115017 | 56 | 0.0 | 0.0 | 0.00 | 0.00 | 0.00 | 99 | 1021.6 | |
| 20260830114517 | 55 | 0.0 | 0.0 | 0.00 | 0.00 | 0.00 | 99 | 1021.7 | |
| 20260830114017 | 55 | 0.0 | 0.0 | 0.00 | 0.00 | 0.00 | 99 | 1021.8 | |
| 20260830113517 | 55 | 0.0 | 0.0 | 0.00 | 0.00 | 0.00 | 99 | 1021.8 | |
| 20260830113017 | 55 | 0.0 | 0.0 | 0.00 | 0.00 | 0.00 | 100 | 1021.9 | |
| 20260830112517 | 54 | 0.0 | 1.0 | 0.00 | 0.00 | 0.00 | 100 | 1021.8 | |
| 20260830112037 | 54 | 0.0 | 1.0 | 0.00 | 0.00 | 0.00 | 99 | 1021.8 | |
| 20260830111517 | 54 | 0.0 | 0.0 | 0.00 | 0.00 | 0.00 | 99 | 1021.8 | |
| 20260830111017 | 54 | 0.0 | 0.0 | 0.00 | 0.00 | 0.00 | 100 | 1021.9 | |
| 20260830110517 | 54 | 0.0 | 0.0 | 0.00 | 0.00 | 0.00 | 100 | 1021.8 | |
| 20260830110037 | 54 | 0.0 | 0.0 | 0.00 | 0.00 | 0.00 | 100 | 1021.8 | |
| 20260830105517 | 53 | 0.0 | 0.0 | 0.00 | 0.00 | 0.00 | 100 | 1021.9 | |
| 20260830105017 | 53 | 0.0 | 0.0 | 0.00 | 0.00 | 0.00 | 100 | 1021.8 | |
| 20260830104517 | 53 | 0.0 | 0.0 | 0.00 | 0.00 | 0.00 | 100 | 1021.8 | |
| 20260830104017 | 53 | 0.0 | 0.0 | 0.00 | 0.00 | 0.00 | 99 | 1021.8 | |
| 20260830103517 | 53 | 0.0 | 0.0 | 0.00 | 0.00 | 0.00 | 99 | 1021.8 | |
| 20260830103017 | 53 | 0.0 | 0.0 | 0.00 | 0.00 | 0.00 | 99 | 1021.8 | |
| 20260830102517 | 53 | 0.0 | 0.0 | 0.00 | 0.00 | 0.00 | 99 | 1021.8 | |
| 20260830102017 | 53 | 0.0 | 0.0 | 0.00 | 0.00 | 0.00 | 99 | 1021.8 | |
| 20260830101517 | 52 | 0.0 | 0.0 | 0.00 | 0.00 | 0.00 | 99 | 1021.8 | |
| 20260830101017 | 52 | 0.0 | 1.0 | 0.00 | 0.00 | 0.00 | 99 | 1021.9 | |
| 20260830100517 | 52 | 0.0 | 0.0 | 0.00 | 0.00 | 0.00 | 99 | 1021.9 | |
| 20260830100017 | 52 | 0.0 | 0.0 | 0.00 | 0.00 | 0.00 | 99 | 1021.8 | |
| 20260830095517 | 52 | 0.0 | 0.0 | 0.00 | 0.00 | 0.00 | 99 | 1021.8 | |
| 20260830095017 | 52 | 0.0 | 0.0 | 0.00 | 0.00 | 0.00 | 99 | 1021.8 | |
| 20260830094517 | 52 | 0.0 | 1.0 | 0.00 | 0.00 | 0.00 | 99 | 1021.9 | |
| 20260830094017 | 52 | 0.0 | 0.0 | 0.00 | 0.00 | 0.00 | 99 | 1021.9 | |
| 20260830093537 | 52 | 0.0 | 0.0 | 0.00 | 0.00 | 0.00 | 99 | 1021.9 | |
| 20260830093019 | 52 | 0.0 | 1.0 | 0.00 | 0.00 | 0.00 | 99 | 1021.9 | |
| 20260830092537 | 52 | 0.0 | 1.0 | 0.00 | 0.00 | 0.00 | 99 | 1021.9 | |
| 20260830092017 | 52 | 0.0 | 0.0 | 0.00 | 0.00 | 0.00 | 99 | 1021.9 | |
| 20260830091537 | 52 | 0.0 | 0.0 | 0.00 | 0.00 | 0.00 | 99 | 1021.9 | |
| 20260830091037 | 52 | 0.0 | 1.0 | 0.00 | 0.00 | 0.00 | 99 | 1021.9 | |
| 20260830090517 | 52 | 0.0 | 1.0 | 0.00 | 0.00 | 0.00 | 99 | 1021.9 | |
| 20260830090037 | 52 | 0.0 | 0.0 | 0.00 | 0.00 | 0.00 | 99 | 1021.9 | |
| 20260830085537 | 52 | 0.0 | 1.0 | 0.00 | 0.00 | 0.00 | 99 | 1021.9 | |
| 20260830085017 | 52 | 0.0 | 1.0 | 0.00 | 0.00 | 0.00 | 99 | 1021.9 | |
| 20260830084537 | 52 | 0.0 | 1.0 | 0.00 | 0.00 | 0.00 | 99 | 1021.9 | |
| 20260830084017 | 52 | 0.0 | 0.0 | 0.00 | 0.00 | 0.00 | 99 | 1022.0 | |
| 20260830083517 | 52 | 0.0 | 0.0 | 0.00 | 0.00 | 0.00 | 99 | 1022.0 | |
| 20260830083017 | 52 | 0.0 | 2.0 | 0.00 | 0.00 | 0.00 | 99 | 1022.0 | |
| 20260830082517 | 52 | 0.0 | 0.0 | 0.00 | 0.00 | 0.00 | 99 | 1022.0 | |
| 20260830082017 | 52 | 0.0 | 0.0 | 0.00 | 0.00 | 0.00 | 99 | 1021.9 | |
| 20260830081517 | 52 | 0.0 | 0.0 | 0.00 | 0.00 | 0.00 | 99 | 1021.9 | |
| 20260830081017 | 52 | 0.0 | 0.0 | 0.00 | 0.00 | 0.00 | 99 | 1022.0 | |
| 20260830080517 | 52 | 0.0 | 1.0 | 0.00 | 0.00 | 0.00 | 99 | 1022.0 | |
| 20260830080017 | 52 | 0.0 | 0.0 | 0.00 | 0.00 | 0.00 | 99 | 1022.1 | |
| 20260830075517 | 52 | 0.0 | 0.0 | 0.00 | 0.00 | 0.00 | 99 | 1022.1 | |
| 20260830075057 | 52 | 0.0 | 1.0 | 0.00 | 0.00 | 0.00 | 99 | 1022.1 | |
| 20260830074517 | 52 | 0.0 | 0.0 | 0.00 | 0.00 | 0.00 | 99 | 1022.1 | |
| 20260830074017 | 52 | 0.0 | 0.0 | 0.00 | 0.00 | 0.00 | 99 | 1022.2 | |
| 20260830073517 | 52 | 0.0 | 0.0 | 0.00 | 0.00 | 0.00 | 99 | 1022.2 | |
| 20260830073017 | 52 | 0.0 | 0.0 | 0.00 | 0.00 | 0.00 | 99 | 1022.1 | |
| 20260830072517 | 52 | 0.0 | 0.0 | 0.00 | 0.00 | 0.00 | 99 | 1022.2 | |
| 20260830072017 | 52 | 0.0 | 0.0 | 0.00 | 0.00 | 0.00 | 99 | 1022.2 | |
| 20260830071517 | 52 | 0.0 | 0.0 | 0.00 | 0.00 | 0.00 | 99 | 1022.2 | |
| 20260830071017 | 52 | 0.0 | 0.0 | 0.00 | 0.00 | 0.00 | 99 | 1022.2 | |
| 20260830070517 | 52 | 0.0 | 0.0 | 0.00 | 0.00 | 0.00 | 99 | 1022.1 | |
| 20260830070037 | 52 | 0.0 | 0.0 | 0.00 | 0.00 | 0.00 | 99 | 1022.1 | |
| 20260830065517 | 52 | 0.0 | 0.0 | 0.00 | 0.00 | 0.00 | 99 | 1022.1 | |
| 20260830065017 | 52 | 0.0 | 0.0 | 0.00 | 0.00 | 0.00 | 99 | 1022.0 | |
| 20260830064537 | 52 | 0.0 | 0.0 | 0.00 | 0.00 | 0.00 | 99 | 1022.0 | |
| 20260830064017 | 52 | 0.0 | 0.0 | 0.00 | 0.00 | 0.00 | 99 | 1022.0 | |
| 20260830063517 | 52 | 0.0 | 0.0 | 0.00 | 0.00 | 0.00 | 99 | 1022.1 | |
| 20260830063037 | 52 | 0.0 | 0.0 | 0.00 | 0.00 | 0.00 | 99 | 1022.1 | |
| 20260830062517 | 52 | 0.0 | 0.0 | 0.00 | 0.00 | 0.00 | 99 | 1022.1 | |
| 20260830062017 | 52 | 0.0 | 0.0 | 0.00 | 0.00 | 0.00 | 99 | 1022.1 | |
| 20260830061517 | 52 | 0.0 | 0.0 | 0.00 | 0.00 | 0.00 | 99 | 1022.1 | |
| 20260830061017 | 52 | 0.0 | 0.0 | 0.00 | 0.00 | 0.00 | 99 | 1022.1 | |
| 20260830060537 | 52 | 0.0 | 0.0 | 0.00 | 0.00 | 0.00 | 99 | 1022.2 | |
| 20260830060017 | 52 | 0.0 | 0.0 | 0.00 | 0.00 | 0.00 | 99 | 1022.2 | |
| 20260830055517 | 52 | 0.0 | 0.0 | 0.00 | 0.00 | 0.00 | 99 | 1022.2 | |
| 20260830055017 | 53 | 0.0 | 0.0 | 0.00 | 0.00 | 0.00 | 98 | 1022.3 | |
| 20260830054517 | 53 | 0.0 | 1.0 | 0.00 | 0.00 | 0.00 | 99 | 1022.3 | |
| 20260830054017 | 53 | 0.0 | 0.0 | 0.00 | 0.00 | 0.00 | 99 | 1022.3 | |
| 20260830053517 | 53 | 0.0 | 1.0 | 0.00 | 0.00 | 0.00 | 99 | 1022.3 | |
| 20260830053017 | 53 | 0.0 | 0.0 | 0.00 | 0.00 | 0.00 | 98 | 1022.3 | |
| 20260830052517 | 53 | 0.0 | 0.0 | 0.00 | 0.00 | 0.00 | 99 | 1022.2 | |
| 20260830052017 | 53 | 0.0 | 0.0 | 0.00 | 0.00 | 0.00 | 98 | 1022.2 | |
| 20260830051517 | 53 | 0.0 | 0.0 | 0.00 | 0.00 | 0.00 | 98 | 1022.2 | |
| 20260830051017 | 53 | 0.0 | 0.0 | 0.00 | 0.00 | 0.00 | 98 | 1022.2 | |
| 20260830050517 | 53 | 0.0 | 0.0 | 0.00 | 0.00 | 0.00 | 98 | 1022.3 | |
| 20260830050017 | 53 | 0.0 | 0.0 | 0.00 | 0.00 | 0.00 | 98 | 1022.4 | |
| 20260830045517 | 53 | 0.0 | 0.0 | 0.00 | 0.00 | 0.00 | 98 | 1022.4 | |
| 20260830045017 | 53 | 0.0 | 0.0 | 0.00 | 0.00 | 0.00 | 98 | 1022.3 | |
| 20260830044517 | 53 | 0.0 | 0.0 | 0.00 | 0.00 | 0.00 | 98 | 1022.3 | |
| 20260830044037 | 53 | 0.0 | 0.0 | 0.00 | 0.00 | 0.00 | 98 | 1022.3 | |
| 20260830043517 | 53 | 0.0 | 1.0 | 0.00 | 0.00 | 0.00 | 98 | 1022.4 | |
| 20260830043017 | 53 | 0.0 | 0.0 | 0.00 | 0.00 | 0.00 | 98 | 1022.4 | |
| 20260830042517 | 52 | 0.0 | 1.0 | 0.00 | 0.00 | 0.00 | 99 | 1022.3 |